Location: Chiroubles
(46.1812°N, 4.6660°E)
Time: 18:57:01
(UTC+00:00)

Cosmos 1570 Rocket - Pass Details

Date: 15 August 2020
Orbit: 762 x 789 km, 74.1° (Epoch: 24 September)

Event Time Altitude Azimuth Distance (km) Brightness Sun altitude
Rises 21:05:22 0° 337° (NNW) 3,276 8.6 -20.1°
Reaches altitude 10° 21:07:46 10° 336° (NNW) 2,347 7.6 -20.4°
Maximum altitude 21:13:06 81° 250° (WSW) 801 4.0 -21.0°
Enters shadow 21:14:57 42° 170° (S) 1,109 4.4 -21.2°
